Le nostre stazioni meteo in Italia

Pubblicità
Il mio iltempo24.it
Aviano, Italia (16036): Temperatura & dewpoint: 15.09.2018 05:00:00 - 21.09.2018 05:00:00 (CEST)Aviano, Italia (16036): velocità del vento: 15.09.2018 05:00:00 - 21.09.2018 05:00:00 (CEST)Aviano, Italia (16036): direzione del vento: 15.09.2018 05:00:00 - 21.09.2018 05:00:00 (CEST)Aviano, Italia (16036): reduced air pressure: 15.09.2018 05:00:00 - 21.09.2018 05:00:00 (CEST)Aviano, Italia (16036): visibility: 15.09.2018 05:00:00 - 21.09.2018 05:00:00 (CEST)
Data & Tempo tt [°C] td [°C] ff [km/h] ff [kn] dd ppp [hPa] vv [km]
21.09.2018 05:00:00 - - - - - - -
21.09.2018 04:00:00 - - - - - - -
21.09.2018 03:00:00 - - - - - - -
21.09.2018 02:00:00 - - - - - - -
21.09.2018 01:00:00 - - - - - - -
21.09.2018 00:00:00 - - - - - - -
20.09.2018 23:00:00 - - - - - - -
20.09.2018 22:00:00 - - - - - - -
20.09.2018 21:00:00 - - - - - - -
20.09.2018 20:00:00 24,8 17,5 4 2 NNE 1016,9 20
20.09.2018 19:00:00 - - - - - - -
20.09.2018 18:00:00 - - - - - - -
20.09.2018 17:00:00 30,0 14,9 2 1 SO 1016,8 20
20.09.2018 16:00:00 30,0 15,0 5 3 SE - 10
20.09.2018 15:00:00 30,0 16,0 4 2 SSO - 10
20.09.2018 14:00:00 29,6 16,4 8 4 SE 1018,2 25
20.09.2018 13:00:00 29,0 17,0 9 5 SSE - 10
20.09.2018 12:00:00 - - - - - - -
20.09.2018 11:00:00 27,6 17,7 11 6 E 1019,6 25
20.09.2018 10:00:00 - - - - - - -
20.09.2018 09:00:00 - - - - - - -
20.09.2018 08:00:00 20,0 18,7 4 2 E 1019,3 25
20.09.2018 07:00:00 - - - - - - -
20.09.2018 06:00:00 18,0 17,0 8 4 NNE - 10
20.09.2018 05:00:00 - - - - - - -
20.09.2018 04:00:00 - - - - - - -
20.09.2018 03:00:00 - - - - - - -
20.09.2018 02:00:00 - - - - - - -
20.09.2018 01:00:00 - - - - - - -
20.09.2018 00:00:00 - - - - - - -
19.09.2018 23:00:00 - - - - - - -
19.09.2018 22:00:00 23,0 18,0 13 7 NNE - 10
19.09.2018 21:00:00 23,0 19,0 8 4 ENE - 10
19.09.2018 20:00:00 25,0 20,3 9 5 NE 1018,8 15
19.09.2018 19:00:00 27,0 20,0 8 4 E - 10
19.09.2018 18:00:00 28,0 20,0 4 2 SE - 10
19.09.2018 17:00:00 28,4 19,4 5 3 S 1018,2 25
19.09.2018 16:00:00 28,0 20,0 5 3 SSO - 10
19.09.2018 15:00:00 28,0 21,0 8 4 SO - 10
19.09.2018 14:00:00 27,0 20,3 9 5 SSO 1019,0 25
19.09.2018 13:00:00 27,0 21,0 8 4 S - 10
19.09.2018 12:00:00 25,0 21,0 5 3 SSO - 10
19.09.2018 11:00:00 24,6 20,9 5 3 SSE 1019,8 15
19.09.2018 10:00:00 23,0 19,0 5 3 SSE - 10
19.09.2018 09:00:00 21,0 18,0 2 1 NE - 10
19.09.2018 08:00:00 20,0 18,3 4 2 N 1019,6 15
19.09.2018 07:00:00 20,0 18,0 4 2 NE - 10
19.09.2018 06:00:00 19,0 18,0 9 5 N - 10
19.09.2018 05:00:00 - - - - - - -
19.09.2018 04:00:00 - - - - - - -
19.09.2018 03:00:00 - - - - - - -
19.09.2018 02:00:00 - - - - - - -
19.09.2018 01:00:00 - - - - - - -
19.09.2018 00:00:00 - - - - - - -
18.09.2018 23:00:00 - - - - - - -
18.09.2018 22:00:00 23,0 21,0 4 2 OSO - 10
18.09.2018 21:00:00 23,0 21,0 5 3 SSO - 10
18.09.2018 20:00:00 24,0 21,3 11 6 SSO 1018,5 11
18.09.2018 19:00:00 - - - - - - -
18.09.2018 18:00:00 - - - - - - -
18.09.2018 17:00:00 28,0 18,1 8 4 S 1017,6 25
18.09.2018 16:00:00 - - - - - - -
18.09.2018 15:00:00 - - - - - - -
18.09.2018 14:00:00 27,8 18,8 8 4 SE 1018,9 25
18.09.2018 13:00:00 - - - - - - -
18.09.2018 12:00:00 - - - - - - -
18.09.2018 11:00:00 25,8 19,2 4 2 SSE 1019,7 25
18.09.2018 10:00:00 - - - - - - -
18.09.2018 09:00:00 - - - - - - -
18.09.2018 08:00:00 19,0 18,7 5 3 E 1019,9 25
18.09.2018 07:00:00 - - - - - - -
18.09.2018 06:00:00 - - - - - - -
18.09.2018 05:00:00 - - - - - - -
18.09.2018 04:00:00 - - - - - - -
18.09.2018 03:00:00 - - - - - - -
18.09.2018 02:00:00 - - - - - - -
18.09.2018 01:00:00 - - - - - - -
18.09.2018 00:00:00 - - - - - - -
17.09.2018 23:00:00 - - - - - - -
17.09.2018 22:00:00 - - - - - - -
17.09.2018 21:00:00 - - - - - - -
17.09.2018 20:00:00 24,8 18,7 8 4 N 1019,4 25
17.09.2018 19:00:00 - - - - - - -
17.09.2018 18:00:00 - - - - - - -
17.09.2018 17:00:00 27,6 18,6 8 4 SSO 1018,7 25
17.09.2018 16:00:00 - - - - - - -
17.09.2018 15:00:00 - - - - - - -
17.09.2018 14:00:00 27,4 19,0 5 3 S 1020,2 25
17.09.2018 13:00:00 - - - - - - -
17.09.2018 12:00:00 - - - - - - -
17.09.2018 11:00:00 25,2 18,4 5 3 S 1021,4 20
17.09.2018 10:00:00 - - - - - - -
17.09.2018 09:00:00 - - - - - - -
17.09.2018 08:00:00 17,8 16,5 8 4 NNE 1021,4 15
17.09.2018 07:00:00 - - - - - - -
17.09.2018 06:00:00 - - - - - - -
17.09.2018 05:00:00 - - - - - - -
17.09.2018 04:00:00 - - - - - - -
17.09.2018 03:00:00 - - - - - - -
17.09.2018 02:00:00 - - - - - - -
17.09.2018 01:00:00 - - - - - - -
17.09.2018 00:00:00 - - - - - - -
16.09.2018 23:00:00 - - - - - - -
16.09.2018 22:00:00 - - - - - - -
16.09.2018 21:00:00 - - - - - - -
16.09.2018 20:00:00 - - - - - - -
16.09.2018 19:00:00 - - - - - - -
16.09.2018 18:00:00 - - - - - - -
16.09.2018 17:00:00 - - - - - - -
16.09.2018 16:00:00 - - - - - - -
16.09.2018 15:00:00 - - - - - - -
16.09.2018 14:00:00 - - - - - - -
16.09.2018 13:00:00 - - - - - - -
16.09.2018 12:00:00 - - - - - - -
16.09.2018 11:00:00 - - - - - - -
16.09.2018 10:00:00 - - - - - - -
16.09.2018 09:00:00 - - - - - - -
16.09.2018 08:00:00 - - - - - - -
16.09.2018 07:00:00 - - - - - - -
16.09.2018 06:00:00 - - - - - - -
16.09.2018 05:00:00 - - - - - - -
16.09.2018 04:00:00 - - - - - - -
16.09.2018 03:00:00 - - - - - - -
16.09.2018 02:00:00 - - - - - - -
16.09.2018 01:00:00 - - - - - - -
16.09.2018 00:00:00 - - - - - - -
15.09.2018 23:00:00 - - - - - - -
15.09.2018 22:00:00 - - - - - - -
15.09.2018 21:00:00 - - - - - - -
15.09.2018 20:00:00 24,8 21,5 5 3 S 1019,6 20
15.09.2018 19:00:00 - - - - - - -
15.09.2018 18:00:00 - - - - - - -
15.09.2018 17:00:00 27,8 18,8 8 4 NE 1019,1 20
15.09.2018 16:00:00 28,0 18,0 11 6 ESE - 10
15.09.2018 15:00:00 28,0 19,0 13 7 E - 10
15.09.2018 14:00:00 27,8 18,8 13 7 E 1019,8 20
15.09.2018 13:00:00 - - - - - - -
15.09.2018 12:00:00 26,0 18,0 9 5 ENE - 10
15.09.2018 11:00:00 24,4 20,1 4 2 E 1019,9 25
15.09.2018 10:00:00 22,0 19,0 9 5 N - 10
15.09.2018 09:00:00 20,0 19,0 4 2 N - 10
15.09.2018 08:00:00 19,8 18,8 2 1 NE 1017,9 20
15.09.2018 07:00:00 19,0 18,0 4 2 ESE - 10
15.09.2018 06:00:00 19,0 19,0 5 3 OSO - 10
15.09.2018 05:00:00 - - - - - - -

tt = Temperatura
td = dewpoint
ff = velocità del vento
dd = direzione del vento
ppp = reduced air pressure
vv = visibility

Stazioni seguenti

WeatherPro
AMSI
MeteoEarth